[[{"header":{"parameterUnit":"m.s-1","parameterCategory":1,"la1":30.2991,"la2":30.254,"lo1":-89.0895,"lo2":-89.0444,"dy":0.0017,"dx":0.0017,"nx":28,"ny":28,"refTime":"2023-08-14T09:00:00:Z","depth":0,"parameterNumber":2,"parameterNumberName":"U-component_of_WINDS"},"data":[0,0,0,0,0,0,0,0,0,0,0,0,0,0,0,0,0,0,0,0,0,0,0,0,0,0,0,0,0,0,0,0,0,0,0,0,0,0,0,0,0,0,0,0,0,0,0,0,0,0,0,0,0,0,0,0,0,0,3.0094,3.0094,0,3.0148,3.0149,3.0149,3.0152,3.0151,3.0151,3.015,3.0207,3.0209,3.0211,0,0,0,0,0,0,0,0,0,0,0,0,0,2.9995,2.9997,3.0094,3.0094,3.0095,3.0148,3.0149,3.0149,3.0152,3.0151,3.015,3.015,3.0206,3.0209,3.0211,0,0,0,0,0,0,0,0,0,0,0,0,0,3.0042,2.9997,3.0094,3.0103,3.0104,3.0148,3.0149,3.015,3.0152,3.0151,3.015,3.0149,3.0205,3.0208,3.0211,3.025,0,0,3.0221,3.0222,0,0,0,0,0,0,0,0,3.004,3.0046,3.0101,3.0102,3.0104,3.0142,3.0135,3.0183,3.0152,3.0134,3.015,3.0149,3.0186,3.0191,3.0203,3.0253,3.0255,3.0221,3.0223,3.0225,3.0225,0,0,0,0,0,0,0,3.0036,3.0044,3.0115,3.0102,3.0103,3.0105,3.0111,3.0144,3.0165,3.0135,3.0136,3.0142,3.0187,3.02,3.0204,3.0256,3.0221,3.0224,3.0226,3.0227,3.0343,3.0344,0,0,0,0,0,0,3.0031,3.0041,3.0114,3.0117,3.0069,3.0108,3.0114,3.0131,3.0164,3.0169,3.0143,3.0142,3.0195,3.0201,3.0206,3.0255,3.0225,3.0227,3.0229,3.0341,3.0343,3.0344,0,0,0,0,0,0,3.0029,3.0037,3.0111,3.0079,3.0089,3.011,3.0129,3.0132,3.0146,3.017,3.0174,3.0152,3.0195,3.0202,3.024,3.0257,3.0229,3.0232,3.034,3.0342,3.0343,3.0353,0,0,0,0,0,0,3.0026,3.0037,3.0051,3.0079,3.009,3.0143,3.013,3.0134,3.0151,3.015,3.018,3.0184,3.0194,3.0235,3.0243,3.0261,3.0234,3.0339,3.0341,3.0343,3.0351,3.0354,3.0358,0,0,0,0,0,3.0023,3.0051,3.0051,3.006,3.0108,3.0144,3.015,3.0161,3.0152,3.0167,3.0183,3.0183,3.0254,3.0239,3.0248,3.0267,3.0337,3.034,3.0343,3.0349,3.0354,3.0357,0,0,0,0,0,0,3.0024,3.0055,3.0056,3.0094,3.0116,3.0144,3.0163,3.0165,3.0191,3.0189,3.0202,3.0209,3.0247,3.0261,3.0243,3.0308,3.0295,3.0299,3.0297,3.0301,3.0305,3.0301,3.0237,0,0,0,0,0,3.0029,3.0054,3.008,3.0112,3.0123,3.0141,3.0157,3.0164,3.0187,3.0197,3.0215,3.0239,3.0267,3.0285,3.0312,3.0353,3.036,3.0371,3.0374,3.0377,3.0381,3.0406,3.0412,3.0353,3.0353,3.0353,0,0,3.0039,3.0059,3.0074,3.0112,3.013,3.0158,3.0149,3.0178,3.0198,3.0201,3.0238,3.0253,3.028,3.032,3.0339,3.0333,3.0399,3.038,3.0382,3.0385,3.0409,3.0415,3.042,3.0355,3.0354,3.0354,0,0,3.0071,3.0088,3.0117,3.0136,3.0163,3.0176,3.0183,3.0211,3.0221,3.0258,3.0262,3.0287,3.0334,3.0354,3.037,3.0413,3.0414,3.0421,3.0439,3.0463,3.0468,3.0472,3.0488,3.0494,3.0425,3.0425,3.0425,0,3.008,3.0121,3.0132,3.0161,3.0179,3.0183,3.0213,3.0231,3.0266,3.0279,3.0272,3.0332,3.0351,3.0397,3.0407,3.042,3.0429,3.0418,3.0466,3.047,3.0474,3.049,3.0496,3.0426,3.0425,3.0425,3.0425,0,3.0131,3.016,3.018,3.0214,3.0234,3.0264,3.028,3.0299,3.0305,3.0319,3.0358,3.038,3.0413,3.0424,3.0429,3.0471,3.0467,3.0463,3.0451,3.048,3.0496,3.0502,3.0427,3.0426,3.0426,3.0426,0,0,3.0165,3.0206,3.0214,3.023,3.0262,3.0284,3.0315,3.0347,3.0364,3.0388,3.0415,3.0456,3.0453,3.0471,3.0479,3.05,3.0535,3.0494,3.0495,3.0502,3.0584,3.0588,3.0595,3.0536,3.0537,3.0538,3.0582,0,3.0202,3.0256,3.0268,3.0315,3.0343,3.0348,3.0375,3.0398,3.0412,3.0438,3.0454,3.0483,3.0476,3.0487,3.0508,3.0526,3.0552,3.0523,3.0562,3.0564,3.0556,3.0602,3.0606,3.0646,3.0588,3.0589,3.059,0,3.0252,3.0278,3.0328,3.0358,3.037,3.0394,3.0425,3.0449,3.0476,3.0485,3.0507,3.0513,3.0547,3.0533,3.058,3.056,3.0577,3.0589,3.0591,3.0595,3.0579,3.0609,3.066,3.0666,3.0599,3.0599,3.0598,0,3.0273,3.0321,3.0358,3.0371,3.0407,3.0424,3.0439,3.0465,3.0484,3.0512,3.0525,3.0556,3.0573,3.0597,3.0613,3.0601,3.0659,3.0646,3.0669,3.0669,3.0681,3.068,3.0736,3.0691,3.0691,3.0691,3.069,0,3.0313,3.0344,3.0368,3.039,3.0425,3.044,3.0474,3.049,3.0514,3.054,3.0547,3.0572,3.059,3.0618,3.063,3.0668,3.0676,3.0685,3.0688,3.0685,3.0684,3.0696,3.0694,3.0692,3.0692,3.0691,3.0691,0,3.0343,3.036,3.04,3.0431,3.044,3.0464,3.0491,3.0514,3.0529,3.0562,3.0571,3.0594,3.0628,3.0645,3.0687,3.0695,3.0739,3.074,3.073,3.0731,3.0753,3.0751,3.082,3.083,3.0777,3.0778,3.0778,0,3.0368,3.0392,3.0425,3.0444,3.046,3.0489,3.0509,3.0524,3.0545,3.0578,3.0598,3.0631,3.0659,3.0713,3.0734,3.0766,3.0769,3.0791,3.0774,3.077,3.0771,3.0769,3.0773,3.0794,3.0794,3.0794,3.0795,0,3.0411,3.0419,3.0446,3.0478,3.0501,3.0527,3.0552,3.0567,3.0587,3.061,3.0644,3.0666,3.0709,3.0743,3.0777,3.0795,3.0799,3.08,3.0807,3.0804,3.0798,3.0803,3.0739,3.0798,3.0798,3.0798,3.0798,3.0797,3.044,3.0462,3.049,3.0521,3.0542,3.0566,3.0589,3.0607,3.0636,3.0672,3.068,3.0717,3.0745,3.0792,3.081,3.084,3.0836,3.0846,3.0848,3.0851,3.0852,3.0793,3.0846,3.0846,3.0846,3.0846,3.0846,0,3.0484,3.0503,3.0531,3.0567,3.0592,3.0593,3.0622,3.0643,3.0675,3.0701,3.0729,3.0769,3.0803,3.0827,3.0862,3.0881,3.0884,3.089,3.0889,3.0893,3.0854,3.0845,3.0887,3.0887,3.0887,3.0887,3.0887,3.0887,3.051,3.0548,3.056,3.0609,3.0627,3.0663,3.0679,3.0702,3.0723,3.0768,3.0796,3.0811,3.0837,3.0874,3.0906,3.0912,3.0925,3.0931,3.0938,3.09,3.0896,3.0892,3.0883,3.0933,3.0933,3.0975,3.0975,3.0976]},{"header":{"parameterUnit":"m.s-1","parameterCategory":1,"la1":30.2991,"la2":30.254,"lo1":-89.0895,"lo2":-89.0444,"dy":0.0017,"dx":0.0017,"nx":28,"ny":28,"refTime":"2023-08-14T09:00:00:Z","depth":0,"parameterNumber":3,"parameterNumberName":"V-component_of_WINDS"},"data":[0,0,0,0,0,0,0,0,0,0,0,0,0,0,0,0,0,0,0,0,0,0,0,0,0,0,0,0,0,0,0,0,0,0,0,0,0,0,0,0,0,0,0,0,0,0,0,0,0,0,0,0,0,0,0,0,0,0,-0.9236,-0.9236,0,-0.9259,-0.926,-0.926,-0.9258,-0.9258,-0.9258,-0.9257,-0.9281,-0.9281,-0.9282,0,0,0,0,0,0,0,0,0,0,0,0,0,-0.9191,-0.9192,-0.9236,-0.9236,-0.9237,-0.9259,-0.926,-0.926,-0.9258,-0.9258,-0.9258,-0.9257,-0.928,-0.9281,-0.9282,0,0,0,0,0,0,0,0,0,0,0,0,0,-0.9212,-0.9192,-0.9236,-0.9239,-0.9239,-0.9259,-0.926,-0.926,-0.9258,-0.9258,-0.9257,-0.9257,-0.928,-0.9281,-0.9283,-0.9302,0,0,-0.9287,-0.9288,0,0,0,0,0,0,0,0,-0.9211,-0.9214,-0.9238,-0.9239,-0.9239,-0.9255,-0.9252,-0.9274,-0.9259,-0.9251,-0.9257,-0.9257,-0.9273,-0.9275,-0.928,-0.9303,-0.9304,-0.9287,-0.9288,-0.9288,-0.9289,0,0,0,0,0,0,0,-0.9209,-0.9213,-0.9245,-0.9238,-0.9239,-0.9239,-0.9241,-0.9256,-0.9264,-0.9252,-0.9252,-0.9254,-0.9273,-0.9279,-0.9281,-0.9304,-0.9287,-0.9288,-0.9289,-0.929,-0.9346,-0.9346,0,0,0,0,0,0,-0.9207,-0.9211,-0.9245,-0.9246,-0.9223,-0.924,-0.9243,-0.9251,-0.9264,-0.9266,-0.9255,-0.9254,-0.9277,-0.9279,-0.9281,-0.9306,-0.9288,-0.929,-0.9291,-0.9345,-0.9346,-0.9346,0,0,0,0,0,0,-0.9206,-0.921,-0.9244,-0.9229,-0.9233,-0.9241,-0.925,-0.9251,-0.9257,-0.9267,-0.9268,-0.9259,-0.9276,-0.9279,-0.9297,-0.9307,-0.929,-0.9292,-0.9344,-0.9345,-0.9346,-0.9354,0,0,0,0,0,0,-0.9205,-0.921,-0.9217,-0.9229,-0.9234,-0.9259,-0.9251,-0.9252,-0.926,-0.9259,-0.9271,-0.9273,-0.9276,-0.9295,-0.9298,-0.9308,-0.9293,-0.9343,-0.9345,-0.9346,-0.9353,-0.9355,-0.9357,0,0,0,0,0,-0.9203,-0.9218,-0.9217,-0.9221,-0.9243,-0.9259,-0.9262,-0.9266,-0.9261,-0.9268,-0.9274,-0.9272,-0.9305,-0.9297,-0.9301,-0.9311,-0.9343,-0.9344,-0.9346,-0.9352,-0.9355,-0.9357,0,0,0,0,0,0,-0.9206,-0.9219,-0.9219,-0.9238,-0.9248,-0.9259,-0.9268,-0.9268,-0.9279,-0.9278,-0.9282,-0.9285,-0.9303,-0.9309,-0.93,-0.9331,-0.9323,-0.9325,-0.9327,-0.933,-0.9331,-0.933,-0.9294,0,0,0,0,0,-0.9209,-0.9221,-0.9232,-0.9248,-0.9253,-0.926,-0.9267,-0.9269,-0.9279,-0.9283,-0.9291,-0.9301,-0.9314,-0.9322,-0.9334,-0.9354,-0.9357,-0.9363,-0.9365,-0.9367,-0.9369,-0.9381,-0.9385,-0.9351,-0.9351,-0.9351,0,0,-0.9215,-0.9224,-0.9231,-0.9249,-0.9256,-0.927,-0.9263,-0.9277,-0.9287,-0.9285,-0.9303,-0.9309,-0.932,-0.934,-0.9349,-0.9345,-0.9379,-0.9369,-0.937,-0.9371,-0.9383,-0.9386,-0.9389,-0.9352,-0.9352,-0.9352,0,0,-0.9232,-0.924,-0.9254,-0.9263,-0.9275,-0.928,-0.9283,-0.9295,-0.93,-0.9317,-0.9317,-0.9329,-0.935,-0.9359,-0.9366,-0.9389,-0.9388,-0.9393,-0.9404,-0.9416,-0.9419,-0.9421,-0.943,-0.9433,-0.9395,-0.9395,-0.9395,0,-0.9238,-0.9258,-0.9262,-0.9276,-0.9284,-0.9284,-0.93,-0.9307,-0.9323,-0.9329,-0.9324,-0.9352,-0.936,-0.9382,-0.9388,-0.9393,-0.9398,-0.9392,-0.9418,-0.942,-0.9423,-0.9432,-0.9435,-0.9395,-0.9395,-0.9395,-0.9395,0,-0.9265,-0.9279,-0.9289,-0.9305,-0.9314,-0.9329,-0.9335,-0.9344,-0.9346,-0.9352,-0.9371,-0.938,-0.9395,-0.94,-0.9401,-0.9423,-0.9421,-0.9417,-0.9409,-0.9426,-0.9435,-0.9438,-0.9396,-0.9396,-0.9396,-0.9396,0,0,-0.9284,-0.9303,-0.9307,-0.9315,-0.9329,-0.934,-0.9355,-0.937,-0.9378,-0.9389,-0.9403,-0.9422,-0.9419,-0.9427,-0.943,-0.944,-0.946,-0.9436,-0.9436,-0.9441,-0.9486,-0.9489,-0.9493,-0.9459,-0.946,-0.946,-0.9485,0,-0.9304,-0.9331,-0.9336,-0.936,-0.9373,-0.9374,-0.9388,-0.9398,-0.9404,-0.9417,-0.9423,-0.9437,-0.9432,-0.9437,-0.9448,-0.9455,-0.9469,-0.9453,-0.9472,-0.9473,-0.947,-0.9497,-0.95,-0.9523,-0.9488,-0.9489,-0.9489,0,-0.9331,-0.9344,-0.9369,-0.9383,-0.9389,-0.9401,-0.9416,-0.9428,-0.944,-0.9444,-0.9454,-0.9455,-0.9472,-0.9463,-0.9487,-0.9476,-0.9484,-0.9489,-0.949,-0.9492,-0.9483,-0.9501,-0.9531,-0.9534,-0.9494,-0.9494,-0.9494,0,-0.9344,-0.9367,-0.9386,-0.9393,-0.9409,-0.9418,-0.9425,-0.9437,-0.9446,-0.9459,-0.9465,-0.948,-0.9488,-0.95,-0.9505,-0.9498,-0.9529,-0.952,-0.9533,-0.9533,-0.954,-0.9539,-0.9572,-0.9544,-0.9544,-0.9544,-0.9544,0,-0.9366,-0.9382,-0.9392,-0.9404,-0.9422,-0.9428,-0.9446,-0.9453,-0.9464,-0.9477,-0.9478,-0.9491,-0.9498,-0.9511,-0.9516,-0.9536,-0.9539,-0.9543,-0.9544,-0.9543,-0.9543,-0.9549,-0.9548,-0.9545,-0.9544,-0.9544,-0.9544,0,-0.9384,-0.9391,-0.9412,-0.9426,-0.9431,-0.9443,-0.9456,-0.9468,-0.9474,-0.9491,-0.9495,-0.9505,-0.9522,-0.9529,-0.9548,-0.9552,-0.9575,-0.9574,-0.9571,-0.9571,-0.9584,-0.9583,-0.9622,-0.9628,-0.9595,-0.9595,-0.9596,0,-0.9398,-0.941,-0.9427,-0.9436,-0.9444,-0.9458,-0.9468,-0.9474,-0.9485,-0.9501,-0.9511,-0.9527,-0.9541,-0.9567,-0.9577,-0.9592,-0.9593,-0.9605,-0.9595,-0.9594,-0.9594,-0.9594,-0.9596,-0.9607,-0.9608,-0.9608,-0.9608,0,-0.9423,-0.9426,-0.944,-0.9456,-0.9468,-0.9481,-0.9493,-0.9501,-0.9509,-0.9521,-0.9538,-0.9548,-0.957,-0.9587,-0.9603,-0.9611,-0.9611,-0.9611,-0.9615,-0.9615,-0.9613,-0.9616,-0.9577,-0.9611,-0.961,-0.961,-0.961,-0.961,-0.944,-0.9452,-0.9465,-0.9481,-0.9492,-0.9504,-0.9516,-0.9524,-0.9539,-0.9557,-0.9559,-0.9578,-0.9592,-0.9614,-0.9623,-0.9638,-0.9635,-0.964,-0.9642,-0.9643,-0.9645,-0.961,-0.9641,-0.9641,-0.964,-0.964,-0.964,0,-0.9466,-0.9475,-0.949,-0.9508,-0.9521,-0.952,-0.9534,-0.9545,-0.9562,-0.9574,-0.9588,-0.9609,-0.9626,-0.9637,-0.9654,-0.9664,-0.9665,-0.9668,-0.9668,-0.967,-0.9646,-0.9641,-0.9668,-0.9668,-0.9667,-0.9667,-0.9667,-0.9667,-0.9481,-0.9501,-0.9506,-0.9532,-0.9541,-0.956,-0.9568,-0.958,-0.959,-0.9613,-0.9627,-0.9634,-0.9647,-0.9665,-0.9681,-0.9684,-0.969,-0.9694,-0.9697,-0.9674,-0.9672,-0.9669,-0.9665,-0.9696,-0.9696,-0.9721,-0.9721,-0.9721]}]]